Location: C�mpuri de-Sus
(45.9500°N, 22.5500°E)
Time: 19:09:57
(UTC+00:00)

Cosmos 839 Rocket - Pass Details

Date: 09 December 2023
Orbit: 960 x 2093 km, 65.9° (Epoch: 20 February)

Event Time Altitude Azimuth Distance (km) Brightness Sun altitude
Exits shadow 00:11:32 35° 61° (ENE) 3,018 6.6 -57.9°
Drops below altitude 10° 00:17:51 10° 41° (NE) 4,463 7.8 -57.0°
Sets 00:21:14 0° 36° (NE) 5,377 8.3 -56.5°
